www.pogodaiklimat.ru

Погода и климат >> Архив погоды >> Аргентина >> Buenos Aires Aeropuerto


АРХИВ ПОГОДЫ в Buenos Aires Aeropuerto

Время (UTC), дата Ветер
(напр.,м/с)
 
Видим.   Явления Облачность Т
(С)
Тd
(С)
f
(%)
Тe
(С)
Тes
(С)
Комфортность P
(гПа)
Po
(гПа)
Тmin
(С)
Tmax
(С)
R
(мм)
R24
(мм)
S
(см)
15 18.04 В 4 10 км 9/5 660 м
[Sc Ac As]
+18.4 +13.0 71 +19 +20 тепло 1023.6 1022.9
18 18.04 В 6 10 км {морось} 10/6 750 м
[Sc Ac As]
+19.1 +13.6 70 +20 +20 по сезону 1020.5 1019.8 0.0
21 18.04 В 6 10 км 10/0
[Ac As]
+18.7 +14.6 77 +19 +19 по сезону 1019.8 1019.2
00 19.04 В 6 10 км 10/5 1200 м
[Sc Cs]
+18.7 +15.2 80 +19 +19 тепло 1019.5 1018.8 +17.5 +20.0
03 19.04 В 6 10 км 8/0
[Ac As Cs]
+19.0 +15.3 79 +20 +20 тепло 1017.8 1017.2
06 19.04 СВ 3 10 км 10/4 1350 м
[Sc Ac As Cs]
+18.2 +14.6 80 +19 +19 тепло 1017.5 1016.8
09 19.04 В 4 10 км 10/4 1200 м
[Sc Ac As]
+18.0 +14.6 81 +18 +18 тепло 1016.0 1015.3
12 19.04 В 5 10 км 10/6 400 м
[St Ac As]
+17.8 +14.9 83 +17 +18 тепло 1016.0 1015.3 +17.8 +19.5 0.0
15 19.04 В 4 5000 м слабая морось 10/10 210 м
[St]
+17.5 +15.8 90 +17 +17 по сезону 1015.3 1014.6
18 19.04 В 3 3000 м дождь {морось} 10/10 240 м
[St]
+18.1 +16.6 91 +19 +19 по сезону 1012.5 1011.8 0.2
21 19.04 В 4 10 км {морось} 10/10 300 м
[St]
+18.7 +16.6 88 +20 +20 тепло 1011.1 1010.4
00 20.04 Ю 1 6000 м дымка {морось} 10/10 360 м
[St]
+19.0 +17.0 88 +22 +22 комфорт 1011.6 1010.9 +17.5 +19.3 0.0
03 20.04 Ю 1 2500 м слабый дождь туман 10/10 270 м
[St]
+18.3 +17.0 92 +20 +20 тепло 1010.6 1009.8
06 20.04 ЮЗ 1 6000 м дымка {дождь} 10/5 240 м
[St As op]
+18.0 +17.0 94 +19 +19 тепло 1009.6 1008.9 0.0
09 20.04 ЮЗ 2 8000 м дымка 10/8 210 м
[St Ac As]
+17.6 +16.3 92 +18 +18 тепло 1008.8 1008.1
12 20.04 ЮЗ 2 8000 м дымка 10/10 210 м
[St]
+17.5 +16.0 91 +18 +18 тепло 1010.0 1009.3 +17.5 +19.0 0.7
15 20.04 Ю 3 10 км 3/1 720 м
[Cu hum Ac trans]
+21.5 +13.8 62 +24 +30 комфорт 1009.4 1008.6
18 20.04 ЮЗ 3 10 км 5/5 1320 м
[Sc]
+24.6 +13.0 48 +27 +30 жарко 1006.9 1006.2
21 20.04 СВ 3 10 км 6/6 1440 м
[Cu Sc]
+22.5 +15.0 63 +26 +26 жарко 1006.9 1006.2
00 21.04 ЮЗ 1 10 км 8/0
[Ac As]
+21.7 +12.9 57 +24 +24 комфорт 1008.2 1007.4 +17.5 +25.5
03 21.04 нст 1 10 км 9/0
[Ac As]
+20.3 +12.4 60 +23 +23 комфорт 1008.6 1007.8
06 21.04 ЮЗ 2 10 км 8/0
[Ac As]
+18.7 +12.1 65 +20 +20 тепло 1008.9 1008.2
09 21.04 З 3 10 км 6/0
[Ac cast Cs]
+17.5 +11.3 67 +18 +18 тепло 1009.7 1009.0
12 21.04 З 2 10 км 5/0
[Ac cast Ci sp]
+18.1 +10.6 62 +19 +20 тепло 1011.9 1011.2 +17.2 +22.0
15 21.04 ЮЗ 3 10 км 3/0
[Ac cast Ci sp]
+22.5 +9.3 43 +24 +31 комфорт 1012.3 1011.6
18 21.04 З 5 10 км 4/4 1500 м
[Sc diur, vesp]
+23.7 +8.5 38 +24 +26 комфорт 1011.3 1010.6
21 21.04 ЮЗ 5 10 км ясно +23.0 +1.3 24 +22 +22 комфорт 1012.5 1011.8
00 22.04 ЮЗ 4 10 км ясно +19.0 +4.6 39 +19 +19 тепло 1015.4 1014.6 +18.1 +24.5
03 22.04 ЮЗ 1 10 км ясно +16.4 +5.2 47 +17 +17 по сезону 1017.8 1017.2
06 22.04 Ю 1 10 км ясно +13.5 +32 +32 очень
душно
1018.5 1017.5
09 22.04 ЮЗ 2 10 км ясно +12.2 +7.3 72 +12 +12 прохладно 1018.7 1018.0
12 22.04 В 3 10 км 6/0
[Ac trans Ci fib]
+14.6 +8.1 65 +14 +15 по сезону 1019.5 1018.8 +12.1 +19.0
15 22.04 С 3 10 км 8/0
[Ac As Cs]
+17.6 +7.1 50 +18 +23 по сезону 1020.6 1020.0
18 22.04 СЗ 5 10 км 10/0
[Ac As]
+18.1 +4.9 42 +18 +19 по сезону 1019.6 1018.9
21 22.04 СЗ 4 10 км 9/0
[Ac As]
+17.1 +8.6 57 +17 +17 по сезону 1019.9 1019.2
00 23.04 СЗ 2 10 км ясно +15.5 +9.4 67 +16 +16 по сезону 1020.6 1020.0 +14.5 +18.6
03 23.04 СЗ 2 10 км ясно +13.9 +10.9 82 +14 +14 по сезону 1020.4 1019.7
06 23.04 штиль 0 10 км ясно +13.4 +8.0 70 +13 +13 по сезону 1020.4 1019.7
09 23.04 СЗ 2 10 км 5/0
[Ac trans]
+12.6 +8.9 78 +12 +12 прохладно 1020.0 1019.3
12 23.04 СЗ 3 10 км 5/0
[Ac cast Ci fib]
+14.8 +12.4 86 +14 +15 по сезону 1020.9 1020.2 +12.5 +15.5
15 23.04 С 3 10 км ясно +19.1 +10.9 59 +20 +29 тепло 1020.2 1019.6
18 23.04 С 3 10 км 6/0
[Cc]
+20.7 +11.6 56 +23 +28 комфорт 1017.9 1017.2
21 23.04 С 2 10 км 8/0
[Ac As Cs]
+20.6 +9.3 48 +23 +23 комфорт 1016.5 1015.8
00 24.04 В 4 10 км 8/0
[Ac As Cs]
+18.8 +14.0 74 +20 +20 тепло 1016.4 1015.7 +14.8 +22.0
03 24.04 С 4 10 км 8/0
[Cs]
+19.6 +10.9 57 +21 +21 комфорт 1016.5 1015.8
06 24.04 СВ 2 10 км 8/0
[Cs]
+18.6 +10.7 60 +20 +20 тепло 1016.4 1015.7
09 24.04 С 4 10 км 10/0
[Ac As]
+18.6 +11.0 61 +19 +19 тепло 1015.8 1015.2
12 24.04 СВ 4 10 км 9/0
[Ac und]
+18.6 +11.6 64 +19 +20 тепло 1015.4 1014.6 +17.9 +20.0
15 24.04 В 4 10 км 6/0
[Ac trans]
+19.9 +13.3 66 +22 +26 комфорт 1014.4 1013.7
18 24.04 В 4 10 км 4/0
[Ac trans Cs]
+20.8 +13.8 64 +24 +28 комфорт 1011.6 1010.9
21 24.04 В 3 10 км 4/0
[Ac As]
+20.3 +14.0 67 +23 +23 комфорт 1010.9 1010.2
00 25.04 ЮВ 2 10 км 3/0
[Ac As]
+18.7 +16.0 84 +20 +20 тепло 1010.8 1010.1 +18.1 +21.0
03 25.04 ЮВ 2 10 км ясно +17.9 +14.7 82 +19 +19 тепло 1010.3 1009.6
06 25.04 Ю 1 8000 м местами туман поземный туман ясно +16.1 +15.4 96 +17 +17 тепло 1008.7 1008.0
09 25.04 ЮВ 3 3000 м дымка {туман} 5/4 120 м
[Frnb Ac und]
+16.8 +16.0 95 +17 +17 тепло 1006.9 1006.2
12 25.04 С 2 6000 м дымка {туман} 10/10 120 м
[St]
+18.0 +17.2 95 +19 +19 тепло 1007.4 1006.6 +15.7 +19.0

 

Местоположение метеостанции Buenos Aires Aeropuerto (Аргентина): широта -34.56 долгота -58.41 высота над уровнем моря 6 м.

В архиве по умолчанию представлена погода в Buenos Aires Aeropuerto за последнюю неделю. Архивные данные за месяц целиком и за предыдущие месяцы, начиная с января 2011 года, Вы можете получить, выбрав интересующий диапазон дат из раскрывающегося списка и нажав кнопку "Ввод!".

Внимание! Время в таблицах - всемирное. Для получения местного времени необходимо прибавить поправку, которая в Buenos Aires Aeropuerto равна -3 ч.

Смотрите также архив погоды в соседних городах и на ближайших метеорологических станциях:

Погода в Buenos Aires (Аргентина) (7 км)
Погода в Ezeiza (Аргентина) (30 км)
Погода в Colonia (Уругвай) (55 км)
Погода в La Plata (Аргентина) (64 км)
Погода в Mercedes (Уругвай) (149 км)
Погода в Gualeguaychu (Аргентина) (174 км)
Погода в Las Flores (Аргентина) (179 км)
Погода в Melilla (Уругвай) (199 км)
Погода в Prado (Уругвай) (205 км)
Погода в Dolores (Аргентина) (206 км)

Пояснения к столбцам:

Ветер - указаны скорость ветра в м/с - средняя за 10 мин, порывы в срок и между сроками (в фигурных скобках) и направление, откуда дует ветер: С - северный, СВ - северо-восточный, В - восточный, ЮВ - юго-восточный, Ю - южный, ЮЗ - юго-западный, З - западный, СЗ - северо-западный.
Видимость - горизонтальная дальность видимости в метрах или километрах. При видимости от 1 до 10 км при отсутствии осадков обычно наблюдается дымка, при ухудшении видимости до 1 км и менее - туман. В сухую погоду видимость может ухудшаться дымом, пылью или мглою.
Явления - указаны атмосферные явления, наблюдавшиеся в срок или в последний час перед сроком; фигурными скобками обозначены явления, наблюдавшиеся между сроками (за 1-3 часа до срока); квадратными скобками обозначены град или гололедные отложения с указанием их диаметра в мм.
Облачность - указаны через наклонную черту общая и нижняя облачность в баллах и высота нижней границы облаков в метрах; квадратными скобками обозначены формы облаков: Ci - перистые, Cs - перисто-слоистые, Cc - перисто-кучевые, Ac - высококучевые, As - высокослоистые, Sc - слоисто-кучевые, Ns - слоисто-дождевые, Cu - кучевые, Cb - кучево-дождевые. Подробнее классификацию облаков см. в Атласе облаков (PDF).
T - Температура воздуха - температура, измеренная на высоте 2 м над землей.
Td - Температура точки росы - температура, при понижении до которой содержащийся в воздухе водяной пар достигнет насыщения.
f - Относительная влажность воздуха - влажноcть воздуха, измеренная на высоте 2 м над землей.
Te - Эффективная температура - температура, которую ощущает одетый по сезону человек в тени. Характеристика душности погоды. При расчете учитывается влияние влажности воздуха и скорости ветра на теплоощущения человека.
Tes - Эффективная температура на солнце - температура, которую ощущает человек, с поправкой на солнечный нагрев. Характеристика знойности погоды. Зависит от высоты солнца над горизонтом, облачности и скорости ветра. Ночью, в пасмурную погоду, а также при ветре 12 м/с и более поправка равна нулю.
P - Атмосферное давление - приведенное к уровню моря атмосферное давление.
Po - Атмосферное давление - измеренное на уровне метеостанции атмосферное давление.
Tmin - Минимальная температура - минимум температуры воздуха на высоте 2 м над землей.
Tmax - Максимальная температура - максимум температуры воздуха на высоте 2 м над землей.
R - Количество осадков - Количество выпавших осадков за период времени, мм. При наведении курсора мыши на число - период времени, за который выпало указанное количество осадков.
R24 - Количество осадков - Количество выпавших осадков за 24 часа, мм.
S - Снежный покров - Высота снежного покрова, см. При наведении курсора мыши на число - состояние снежного покрова и степень покрытия местности в баллах.